This demonstration page uses our WeatherBlox Daily Observations layout. Learn more.

39.92423, -83.80882

Hourly Observations for January 25, 2021

Temp ( °F °C ) Dew Point ( °F °C ) Humidity (%) Winds ( mph kmh ) Pressure ( in mb ) Visibility ( mi km ) Precip ( " mm )
12:07 am 00:07 Cloudy with Freezing Fog 28 -2 28 -2 100 100 Calm 30.11 1020 0.5 0.80467 0 0
12:56 am 00:56 Cloudy with Freezing Fog 29 -1.7 29 -1.7 100 100 Calm 30.09 1019 0.5 0.80467 0 0
1:44 am 01:44 Cloudy with Freezing Fog 28 -2 28 -2 100 100 Calm 30.1 1019 0.25 0.402335 0 0
1:56 am 01:56 Cloudy with Mist and Fog 29 -1.7 29 -1.7 100 100 N 3 6 30.08 1019 0.75 1.207005 0 0
1:58 am 01:58 Cloudy with Mist and Fog 28 -2 28 -2 100 100 Calm 30.1 1019 1.25 2.011675 0 0
2:16 am 02:16 Cloudy with Mist and Fog 28 -2 28 -2 100 100 ENE 3 6 30.09 1019 1 1.60934 0 0
2:26 am 02:26 Cloudy with Mist and Fog 28 -2 28 -2 100 100 Calm 30.11 1020 2 3.21868 0 0
2:38 am 02:38 Cloudy with Mist and Fog 28 -2 28 -2 100 100 Calm 30.12 1020 3 4.82802 0 0
2:47 am 02:47 Cloudy with Mist and Fog 28 -2 28 -2 100 100 NW 3 6 30.13 1020 3 4.82802 0 0
2:56 am 02:56 Cloudy with Mist and Fog 29 -1.7 29 -1.7 100 100 NW 3 6 30.11 1020 3 4.82802 0 0
3:46 am 03:46 Cloudy with Mist and Fog 28 -2 28 -2 100 100 N 3 6 30.13 1020 2.5 4.02335 0 0
3:56 am 03:56 Cloudy with Mist and Fog 29 -1.7 29 -1.7 100 100 N 5 7 30.12 1020 2 3.21868 0 0
4:19 am 04:19 Cloudy with Mist and Fog 28 -2 28 -2 100 100 N 6 9 30.12 1020 2.5 4.02335 0 0
4:34 am 04:34 Cloudy with Mist and Fog 28 -2 28 -2 100 100 N 3 6 30.13 1020 3 4.82802 0 0
4:44 am 04:44 Cloudy with Mist and Fog 28 -2 28 -2 100 100 NNE 3 6 30.13 1020 3 4.82802 0 0
4:56 am 04:56 Cloudy with Mist and Fog 29 -1.7 29 -1.7 100 100 NNE 6 9 30.1 1019 3 4.82802 0 0
5:06 am 05:06 Cloudy with Mist and Fog 28 -2 28 -2 100 100 NNE 7 11 30.12 1020 4 6.43736 0 0
5:56 am 05:56 Cloudy with Mist and Fog 28 -2.2 28 -2.2 100 100 NE 9 15 30.08 1019 5 8.0467 0 0
6:56 am 06:56 Cloudy with Mist and Fog 28 -2.2 28 -2.2 100 100 E 8 13 30.08 1019 6 9.65604 0 0
7:56 am 07:56 Cloudy with Mist and Fog 28 -2.2 28 -2.2 100 100 ENE 9 15 30.07 1018 4 6.43736 0 0
8:56 am 08:56 Cloudy with Mist and Fog 28 -2.2 28 -2.2 100 100 E 8 13 30.08 1019 4 6.43736 0 0
9:56 am 09:56 Cloudy with Mist and Fog 29 -1.7 29 -1.7 100 100 E 9 15 30.06 1018 4 6.43736 0 0
10:56 am 10:56 Cloudy with Mist and Fog 30 -1.1 30 -1.1 100 100 E 9 15 30.06 1018 4 6.43736 0 0
11:56 am 11:56 Cloudy with Mist and Fog 30 -1.1 30 -1.1 100 100 E 9 15 30.03 1017 4 6.43736 0 0
12:56 pm 12:56 Cloudy with Light Snow 30 -1.1 30 -1.1 100 100 E 9 15 29.99 1016 2.5 4.02335 0.001 0.001
1:48 pm 13:48 Cloudy with Light Snow 30 -1 30 -1 100 100 ENE 9 15 29.99 1016 3 4.82802 0.001 0.001
1:56 pm 13:56 Cloudy with Light Snow 31 -0.6 31 -0.6 100 100 E 9 15 29.97 1015 3 4.82802 0.001 0.001
2:17 pm 14:17 Cloudy with Light Freezing Rain 30 -1 30 -1 100 100 E 10 17 29.97 1015 3 4.82802 0.001 0.001
2:56 pm 14:56 Cloudy with Light Freezing Rain 31 -0.6 31 -0.6 100 100 E 10 17 29.93 1013 4 6.43736 0.001 0.001
3:49 pm 15:49 Cloudy with Light Wintry Mix 30 -1 30 -1 100 100 ENE 12 19 29.9 1012 4 6.43736 0.001 0.001
3:56 pm 15:56 Cloudy with Mist and Fog 31 -0.6 31 -0.6 100 100 ENE 12 19 29.88 1012 4 6.43736 0.001 0.001
4:56 pm 16:56 Cloudy with Mist and Fog 31 -0.6 31 -0.6 100 100 ENE 15 24 29.85 1011 3 4.82802 0 0
5:45 pm 17:45 Cloudy with Mist and Fog 30 -1 30 -1 100 100 E 13 20 29.88 1012 2.5 4.02335 0 0
5:56 pm 17:56 Cloudy with Light Snow 31 -0.6 31 -0.6 100 100 ENE 10 17 29.85 1011 2 3.21868 0.001 0.001
6:19 pm 18:19 Cloudy with Light Snow 30 -1 30 -1 100 100 ENE 13 20 29.86 1011 3 4.82802 0.001 0.001
6:26 pm 18:26 Cloudy with Light Snow 30 -1 30 -1 100 100 ENE 14 22 29.85 1011 2.5 4.02335 0.001 0.001
6:56 pm 18:56 Cloudy with Mist and Fog 31 -0.6 31 -0.6 100 100 ENE 14 22 29.83 1010 2.5 4.02335 0.001 0.001
7:20 pm 19:20 Cloudy with Light Snow 30 -1 30 -1 100 100 ENE 15 24 29.85 1011 1.75 2.816345 0.001 0.001
7:56 pm 19:56 Cloudy with Light Snow 32 0 32 0 100 100 ENE 18 30 29.83 1010 1.75 2.816345 0.001 0.001
8:16 pm 20:16 Cloudy with Light Snow 32 0 32 0 100 100 ENE 14 22 29.84 1011 2 3.21868 0.001 0.001
8:28 pm 20:28 Cloudy with Light Snow 32 0 32 0 100 100 ENE 14 22 29.84 1011 1.75 2.816345 0.001 0.001
8:56 pm 20:56 Cloudy with Light Snow 32 0 32 0 100 100 ENE 15 24 29.81 1010 1.5 2.41401 0.001 0.001
9:13 pm 21:13 Cloudy with Light Wintry Mix 32 0 32 0 100 100 ENE 14 22 29.83 1010 2 3.21868 0.001 0.001
9:56 pm 21:56 Cloudy with Light Wintry Mix 32 0 32 0 100 100 ENE 14 22 29.81 1009 2.5 4.02335 0.001 0.001
11:56 pm 23:56 Cloudy with Light Wintry Mix 32 0 32 0 100 100 ENE 17 28 29.74 1007 2.5 4.02335 0.001 0.001

Powered by AerisWeather